[[{"header":{"parameterUnit":"m.s-1","parameterCategory":2,"la1":30.2991,"la2":30.254,"lo1":-89.0895,"lo2":-89.0444,"dy":0.0017,"dx":0.0017,"nx":28,"ny":28,"refTime":"2024-07-02T21:00:00:Z","depth":"0","parameterNumber":2,"parameterNumberName":"U-component_of_CURRENTS"},"data":[0,0,0,0,0,0,0,0,0,0,0,0,0,0,0,0,0,0,0,0,0,0,0,0,0,0,0,0,0,0,0,0,0,0,0,0,0,0,0,0,0,0,0,0,0,0,0,0,0,0,0,0,0,0,0,0,0,0,-0.3755,-0.3759,0,-0.4016,-0.4017,-0.4019,-0.409,-0.409,-0.4091,-0.4091,-0.4138,-0.4139,-0.414,0,0,0,0,0,0,0,0,0,0,0,0,0,-0.3182,-0.3191,-0.3754,-0.3759,-0.3764,-0.4016,-0.4017,-0.4019,-0.409,-0.4091,-0.4091,-0.4091,-0.4137,-0.4139,-0.414,0,0,0,0,0,0,0,0,0,0,0,0,0,-0.3418,-0.3194,-0.3754,-0.3844,-0.3856,-0.4015,-0.4018,-0.402,-0.409,-0.4091,-0.4091,-0.4091,-0.4137,-0.4139,-0.414,-0.4145,0,0,-0.4145,-0.4146,0,0,0,0,0,0,0,0,-0.3405,-0.3437,-0.3825,-0.3838,-0.3852,-0.4037,-0.3834,-0.4057,-0.409,-0.3982,-0.4091,-0.4091,-0.4096,-0.4101,-0.4126,-0.4147,-0.4149,-0.4145,-0.4146,-0.4147,-0.4147,0,0,0,0,0,0,0,-0.3388,-0.3425,-0.3839,-0.3831,-0.3848,-0.3826,-0.3859,-0.3875,-0.4015,-0.3991,-0.4002,-0.406,-0.4099,-0.4125,-0.4128,-0.415,-0.4145,-0.4147,-0.4148,-0.4148,-0.4134,-0.4133,0,0,0,0,0,0,-0.3402,-0.3412,-0.3831,-0.3849,-0.3645,-0.3838,-0.3874,-0.3962,-0.4021,-0.4037,-0.406,-0.4063,-0.4122,-0.4126,-0.4129,-0.4028,-0.4147,-0.4148,-0.4149,-0.4135,-0.4134,-0.4132,0,0,0,0,0,0,-0.3389,-0.3438,-0.3821,-0.3647,-0.3697,-0.3851,-0.3947,-0.3968,-0.3994,-0.4079,-0.4087,-0.4067,-0.4122,-0.4127,-0.4145,-0.4035,-0.4149,-0.4151,-0.4137,-0.4135,-0.4133,-0.3896,0,0,0,0,0,0,-0.3372,-0.3432,-0.3428,-0.3651,-0.3709,-0.3851,-0.395,-0.3973,-0.4039,-0.4045,-0.4087,-0.4093,-0.4123,-0.4143,-0.4147,-0.4039,-0.4152,-0.4138,-0.4136,-0.4133,-0.3906,-0.3886,-0.387,0,0,0,0,0,-0.3351,-0.3317,-0.3427,-0.3475,-0.3724,-0.385,-0.3871,-0.3968,-0.4039,-0.4,-0.408,-0.4091,-0.4128,-0.4144,-0.4149,-0.4038,-0.414,-0.4137,-0.4134,-0.3914,-0.389,-0.387,0,0,0,0,0,0,-0.3092,-0.3332,-0.3454,-0.3509,-0.3661,-0.3867,-0.3823,-0.3961,-0.4001,-0.3988,-0.4093,-0.4101,-0.407,-0.4113,-0.4129,-0.4036,-0.4127,-0.4125,-0.3958,-0.3937,-0.3919,-0.3774,-0.4153,0,0,0,0,0,-0.3046,-0.3071,-0.3337,-0.3384,-0.3433,-0.3644,-0.3694,-0.3796,-0.3907,-0.3926,-0.4,-0.4048,-0.4063,-0.405,-0.4076,-0.4029,-0.3983,-0.3963,-0.3945,-0.3929,-0.382,-0.3756,-0.3719,-0.4122,-0.4122,-0.4122,0,0,-0.2985,-0.3106,-0.3137,-0.3325,-0.3431,-0.3454,-0.3663,-0.3722,-0.373,-0.3919,-0.3893,-0.3993,-0.4049,-0.3996,-0.3981,-0.4009,-0.3783,-0.3925,-0.3909,-0.3807,-0.3748,-0.3708,-0.3672,-0.412,-0.412,-0.4121,0,0,-0.284,-0.296,-0.2923,-0.3006,-0.3162,-0.3274,-0.3298,-0.351,-0.3554,-0.362,-0.3732,-0.3765,-0.3837,-0.3818,-0.3827,-0.3726,-0.371,-0.3759,-0.3512,-0.3454,-0.3417,-0.3384,-0.3221,-0.3176,-0.3725,-0.3724,-0.3724,0,-0.2752,-0.2779,-0.2927,-0.2903,-0.2941,-0.3185,-0.3161,-0.3225,-0.3426,-0.3435,-0.3561,-0.3649,-0.3718,-0.3605,-0.3575,-0.3663,-0.3613,-0.3584,-0.3419,-0.3387,-0.3357,-0.3198,-0.3151,-0.3713,-0.3714,-0.3715,-0.3716,0,-0.2614,-0.2603,-0.2564,-0.2618,-0.2657,-0.2663,-0.2822,-0.2842,-0.2982,-0.3098,-0.3099,-0.3241,-0.3274,-0.332,-0.3412,-0.3231,-0.3253,-0.3419,-0.345,-0.33,-0.3145,-0.3099,-0.3696,-0.37,-0.3704,-0.3707,0,0,-0.2511,-0.2478,-0.2467,-0.2427,-0.2508,-0.2543,-0.2479,-0.2525,-0.2483,-0.2649,-0.259,-0.2671,-0.2797,-0.2812,-0.2945,-0.2891,-0.2663,-0.3037,-0.304,-0.2823,-0.2434,-0.2202,-0.2131,-0.2821,-0.2814,-0.2808,-0.2387,0,-0.2369,-0.2245,-0.2272,-0.2141,-0.2087,-0.2197,-0.2128,-0.2178,-0.2267,-0.2248,-0.2361,-0.2386,-0.2586,-0.2629,-0.2583,-0.2702,-0.2542,-0.2753,-0.2652,-0.2643,-0.2416,-0.2071,-0.193,-0.1523,-0.2344,-0.2336,-0.2331,0,-0.2222,-0.2151,-0.2015,-0.1899,-0.1888,-0.1844,-0.1778,-0.1761,-0.175,-0.1817,-0.1827,-0.1972,-0.1908,-0.215,-0.2071,-0.2211,-0.2219,-0.229,-0.2281,-0.209,-0.2324,-0.1823,-0.1411,-0.136,-0.2262,-0.2268,-0.2273,0,-0.2091,-0.195,-0.183,-0.1806,-0.1735,-0.167,-0.1644,-0.1633,-0.1601,-0.1549,-0.1539,-0.1525,-0.1545,-0.1577,-0.1727,-0.1893,-0.1614,-0.1894,-0.1621,-0.1607,-0.1461,-0.1443,-0.093,-0.1676,-0.1677,-0.1678,-0.1679,0,-0.1929,-0.1812,-0.1754,-0.17,-0.1527,-0.1536,-0.1392,-0.1365,-0.1312,-0.1225,-0.1321,-0.1243,-0.1417,-0.1354,-0.1488,-0.1332,-0.1403,-0.1393,-0.1428,-0.1372,-0.1352,-0.1294,-0.1384,-0.1662,-0.1666,-0.1669,-0.1672,0,-0.1798,-0.1768,-0.1606,-0.1507,-0.147,-0.1362,-0.1273,-0.1179,-0.1147,-0.1022,-0.1003,-0.0971,-0.086,-0.0937,-0.0934,-0.0979,-0.085,-0.0843,-0.0686,-0.0703,-0.0424,-0.0511,-0.0103,-0.0121,-0.0422,-0.0413,-0.0405,0,-0.1723,-0.1634,-0.1498,-0.1418,-0.1372,-0.1239,-0.1159,-0.1107,-0.1033,-0.0874,-0.0794,-0.0613,-0.0473,-0.0257,-0.0264,-0.0178,-0.0404,0.0008,-0.0259,-0.0164,-0.0295,-0.0528,-0.0599,0.0025,0.0036,0.0044,0.0051,0,-0.1565,-0.1535,-0.1435,-0.1275,-0.1172,-0.1044,-0.0937,-0.0865,-0.079,-0.0675,-0.0462,-0.0314,0.0005,0.0217,0.0409,0.0386,0.006,0.0197,0.0219,0.017,0.0024,-0.0097,-0.0463,0.0128,0.0121,0.0115,0.0111,0.0108,-0.1465,-0.1347,-0.1237,-0.108,-0.0982,-0.0861,-0.077,-0.0682,-0.0534,-0.037,-0.022,0.0042,0.0433,0.0746,0.0801,0.1027,0.0691,0.0936,0.0855,0.0633,0.0578,0.0507,0.1063,0.1061,0.1059,0.1057,0.1056,0,-0.127,-0.1163,-0.1035,-0.0859,-0.0755,-0.0738,-0.062,-0.0562,-0.0412,-0.0205,-0.0002,0.0477,0.0886,0.1144,0.1486,0.158,0.1351,0.1577,0.1235,0.1138,0.1083,0.1064,0.174,0.174,0.174,0.174,0.174,0.174,-0.1148,-0.0957,-0.0887,-0.0672,-0.0596,-0.0456,-0.0404,-0.036,-0.0241,0.0047,0.0309,0.0499,0.0907,0.1528,0.1845,0.1874,0.1669,0.1763,0.1577,0.1501,0.1428,0.1357,0.1327,0.2047,0.2048,0.1565,0.1562,0.156]},{"header":{"parameterUnit":"m.s-1","parameterCategory":2,"la1":30.2991,"la2":30.254,"lo1":-89.0895,"lo2":-89.0444,"dy":0.0017,"dx":0.0017,"nx":28,"ny":28,"refTime":"2024-07-02T21:00:00:Z","depth":"0","parameterNumber":3,"parameterNumberName":"V-component_of_CURRENTS"},"data":[0,0,0,0,0,0,0,0,0,0,0,0,0,0,0,0,0,0,0,0,0,0,0,0,0,0,0,0,0,0,0,0,0,0,0,0,0,0,0,0,0,0,0,0,0,0,0,0,0,0,0,0,0,0,0,0,0,0,-0.0745,-0.0745,0,-0.0668,-0.0666,-0.0665,-0.0598,-0.0597,-0.0597,-0.0597,-0.0479,-0.0476,-0.0474,0,0,0,0,0,0,0,0,0,0,0,0,0,-0.0958,-0.0953,-0.0745,-0.0745,-0.0744,-0.0668,-0.0666,-0.0665,-0.0598,-0.0597,-0.0597,-0.0597,-0.048,-0.0477,-0.0473,0,0,0,0,0,0,0,0,0,0,0,0,0,-0.0865,-0.0951,-0.0745,-0.0706,-0.0702,-0.0668,-0.0666,-0.0664,-0.0598,-0.0597,-0.0597,-0.0597,-0.0481,-0.0477,-0.0473,-0.0452,0,0,-0.0459,-0.0457,0,0,0,0,0,0,0,0,-0.0871,-0.0857,-0.0712,-0.0709,-0.0704,-0.0647,-0.0699,-0.0593,-0.0598,-0.0631,-0.0597,-0.0597,-0.0536,-0.0527,-0.0505,-0.0446,-0.0441,-0.0459,-0.0456,-0.0454,-0.0453,0,0,0,0,0,0,0,-0.0877,-0.0861,-0.0708,-0.0712,-0.0707,-0.0736,-0.072,-0.0679,-0.0581,-0.0628,-0.0624,-0.0626,-0.0533,-0.0509,-0.0502,-0.0439,-0.0459,-0.0455,-0.0452,-0.0451,-0.0355,-0.0355,0,0,0,0,0,0,-0.0892,-0.0865,-0.0711,-0.0706,-0.0796,-0.0732,-0.0714,-0.0661,-0.0582,-0.0571,-0.0626,-0.0623,-0.0517,-0.0507,-0.0497,-0.0462,-0.0454,-0.045,-0.0448,-0.0355,-0.0355,-0.0355,0,0,0,0,0,0,-0.0895,-0.0876,-0.0714,-0.0793,-0.0775,-0.0728,-0.0669,-0.066,-0.0631,-0.0582,-0.0569,-0.0607,-0.0516,-0.0504,-0.0474,-0.0458,-0.0448,-0.0444,-0.0355,-0.0355,-0.0355,-0.0396,0,0,0,0,0,0,-0.0901,-0.0876,-0.0855,-0.0792,-0.0771,-0.0686,-0.067,-0.0659,-0.0636,-0.063,-0.0562,-0.0551,-0.0515,-0.0481,-0.047,-0.0451,-0.0441,-0.0355,-0.0355,-0.0355,-0.0395,-0.0398,-0.04,0,0,0,0,0,-0.0908,-0.0884,-0.0853,-0.0837,-0.0737,-0.0686,-0.0676,-0.0641,-0.0635,-0.0615,-0.059,-0.0553,-0.0474,-0.0478,-0.0465,-0.0445,-0.0355,-0.0355,-0.0355,-0.0393,-0.0397,-0.04,0,0,0,0,0,0,-0.1007,-0.0873,-0.0839,-0.0785,-0.0736,-0.0677,-0.067,-0.0643,-0.0605,-0.0602,-0.0558,-0.0545,-0.0507,-0.0479,-0.0485,-0.0419,-0.0406,-0.0403,-0.0439,-0.0442,-0.0445,-0.0442,-0.0437,0,0,0,0,0,-0.1008,-0.0936,-0.0842,-0.0814,-0.0776,-0.0721,-0.0703,-0.0667,-0.0627,-0.0609,-0.0571,-0.0533,-0.0498,-0.0475,-0.0435,-0.0404,-0.0405,-0.0382,-0.0385,-0.0388,-0.0377,-0.0409,-0.0415,-0.0356,-0.0356,-0.0356,0,0,-0.1062,-0.0973,-0.0946,-0.0829,-0.0785,-0.0729,-0.0706,-0.0666,-0.0635,-0.0603,-0.0564,-0.0537,-0.0493,-0.0457,-0.0437,-0.0431,-0.0403,-0.0388,-0.0391,-0.0378,-0.041,-0.0416,-0.0421,-0.0356,-0.0356,-0.0356,0,0,-0.1101,-0.1023,-0.0955,-0.0895,-0.0805,-0.0759,-0.0745,-0.0667,-0.064,-0.0607,-0.0576,-0.0552,-0.0496,-0.0462,-0.0439,-0.0435,-0.0416,-0.0416,-0.0424,-0.0457,-0.0462,-0.0467,-0.0471,-0.0476,-0.0418,-0.0418,-0.0419,0,-0.1161,-0.1031,-0.0951,-0.0869,-0.0822,-0.0768,-0.0703,-0.0677,-0.0614,-0.0588,-0.06,-0.0535,-0.0498,-0.0457,-0.0453,-0.0438,-0.0451,-0.0416,-0.0462,-0.0467,-0.0471,-0.0474,-0.0479,-0.042,-0.042,-0.042,-0.042,0,-0.1121,-0.1026,-0.0994,-0.0843,-0.0808,-0.074,-0.0679,-0.0644,-0.0621,-0.0592,-0.0558,-0.054,-0.0492,-0.0487,-0.0465,-0.0459,-0.0457,-0.0465,-0.0458,-0.048,-0.0481,-0.0486,-0.0423,-0.0423,-0.0422,-0.0422,0,0,-0.1168,-0.0985,-0.0964,-0.0865,-0.0761,-0.0704,-0.0679,-0.0595,-0.0554,-0.0554,-0.0524,-0.0496,-0.0489,-0.0464,-0.0447,-0.0482,-0.0519,-0.0486,-0.0487,-0.0497,-0.0581,-0.0506,-0.0503,-0.0551,-0.0552,-0.0553,-0.057,0,-0.1124,-0.0949,-0.0893,-0.0765,-0.0649,-0.0611,-0.0578,-0.0531,-0.0513,-0.0484,-0.05,-0.0466,-0.0482,-0.0459,-0.05,-0.0516,-0.0533,-0.0512,-0.0551,-0.0551,-0.0489,-0.0507,-0.0424,-0.0426,-0.0574,-0.0574,-0.0575,0,-0.1043,-0.0915,-0.077,-0.0614,-0.0569,-0.053,-0.043,-0.0398,-0.0385,-0.0375,-0.0393,-0.0411,-0.044,-0.0463,-0.0534,-0.0528,-0.0538,-0.0572,-0.0573,-0.0488,-0.0484,-0.0428,-0.0428,-0.0491,-0.0581,-0.0581,-0.058,0,-0.0994,-0.0815,-0.068,-0.0625,-0.0479,-0.0437,-0.0389,-0.0358,-0.0296,-0.0317,-0.0297,-0.0366,-0.038,-0.046,-0.0516,-0.0533,-0.0606,-0.0634,-0.0571,-0.0566,-0.049,-0.0476,-0.0557,-0.0661,-0.0661,-0.0661,-0.0661,0,-0.0887,-0.0773,-0.0637,-0.0546,-0.0392,-0.0363,-0.0251,-0.0219,-0.0193,-0.0109,-0.023,-0.0201,-0.0386,-0.0447,-0.0514,-0.0552,-0.0599,-0.0564,-0.0567,-0.0499,-0.0486,-0.053,-0.0601,-0.0661,-0.0661,-0.0661,-0.0661,0,-0.08,-0.0728,-0.0536,-0.0384,-0.0345,-0.0231,-0.0121,-0.0029,-0.0057,0.003,0.0025,-0.0083,-0.0187,-0.0342,-0.0469,-0.051,-0.0614,-0.0554,-0.0447,-0.0436,-0.0445,-0.052,-0.0711,-0.0734,-0.0515,-0.0513,-0.0512,0,-0.0729,-0.0611,-0.0408,-0.0276,-0.0192,-0.0053,0.0054,0.0063,0.0147,0.0137,0.02,0.0077,0.0066,-0.0133,-0.0302,-0.0429,-0.0534,-0.038,-0.0387,-0.0425,-0.0513,-0.0676,-0.0694,-0.0309,-0.0306,-0.0303,-0.0301,0,-0.0528,-0.0463,-0.0285,-0.0043,0.0105,0.0247,0.0368,0.0431,0.0442,0.0475,0.0513,0.0477,0.0253,0.011,-0.0104,-0.0178,-0.0456,-0.0329,-0.0415,-0.0387,-0.0527,-0.0554,-0.031,-0.0279,-0.0282,-0.0283,-0.0284,-0.0285,-0.0353,-0.0175,0.0053,0.0273,0.0415,0.0545,0.0633,0.0719,0.0813,0.0848,0.0807,0.079,0.0566,0.0245,0.0061,-0.0184,-0.0309,-0.0201,-0.0296,-0.0465,-0.047,-0.0152,-0.0096,-0.0097,-0.0098,-0.0099,-0.01,0,-0.0033,0.0146,0.0365,0.0612,0.0751,0.0747,0.0867,0.091,0.0992,0.1051,0.1087,0.1113,0.0827,0.0488,0.0135,-0.0076,-0.0274,-0.0204,-0.0418,-0.0439,-0.0167,-0.0132,-0.0025,-0.0025,-0.0024,-0.0024,-0.0024,-0.0024,0.0181,0.0494,0.058,0.0872,0.0974,0.11,0.1131,0.1154,0.1184,0.1308,0.1395,0.1447,0.1282,0.0541,0.004,-0.01,-0.038,-0.0485,-0.0612,-0.0398,-0.0406,-0.0414,-0.0397,-0.0346,-0.0347,-0.0851,-0.0856,-0.0859]}],[{"header":{"parameterUnit":"m.s-1","parameterCategory":2,"la1":30.2991,"la2":30.254,"lo1":-89.0895,"lo2":-89.0444,"dy":0.0017,"dx":0.0017,"nx":28,"ny":28,"refTime":"2024-07-02T21:00:00:Z","depth":"2","parameterNumber":2,"parameterNumberName":"U-component_of_CURRENTS"},"data":[0,0,0,0,0,0,0,0,0,0,0,0,0,0,0,0,0,0,0,0,0,0,0,0,0,0,0,0,0,0,0,0,0,0,0,0,0,0,0,0,0,0,0,0,0,0,0,0,0,0,0,0,0,0,0,0,0,0,-0.0974,-0.0971,0,-0.0845,-0.0846,-0.0847,-0.0911,-0.0912,-0.0913,-0.0913,-0.0864,-0.0862,-0.086,0,0,0,0,0,0,0,0,0,0,0,0,0,-0.117,-0.1169,-0.0975,-0.097,-0.0966,-0.0845,-0.0846,-0.0847,-0.0911,-0.0912,-0.0913,-0.0914,-0.0864,-0.0862,-0.086,0,0,0,0,0,0,0,0,0,0,0,0,0,-0.1095,-0.1169,-0.0975,-0.0962,-0.0958,-0.0845,-0.0846,-0.0847,-0.0911,-0.0912,-0.0913,-0.0914,-0.0865,-0.0862,-0.0859,-0.082,0,0,-0.085,-0.0849,0,0,0,0,0,0,0,0,-0.11,-0.1092,-0.0968,-0.0962,-0.0957,-0.087,-0.0895,-0.0832,-0.0911,-0.0959,-0.0913,-0.0914,-0.0853,-0.0851,-0.0865,-0.0817,-0.0815,-0.085,-0.0848,-0.0847,-0.0846,0,0,0,0,0,0,0,-0.1105,-0.1097,-0.0953,-0.0963,-0.0956,-0.0923,-0.0918,-0.0885,-0.0926,-0.0955,-0.0952,-0.0891,-0.0855,-0.0868,-0.0864,-0.0815,-0.085,-0.0848,-0.0846,-0.0845,-0.0741,-0.074,0,0,0,0,0,0,-0.1067,-0.1102,-0.0956,-0.0946,-0.0999,-0.0917,-0.0913,-0.0921,-0.0925,-0.0917,-0.089,-0.0894,-0.0873,-0.0867,-0.0862,-0.083,-0.0847,-0.0844,-0.0843,-0.0742,-0.0741,-0.074,0,0,0,0,0,0,-0.1073,-0.1058,-0.0961,-0.0994,-0.0976,-0.0911,-0.092,-0.0917,-0.0932,-0.0869,-0.087,-0.0905,-0.0873,-0.0866,-0.0853,-0.0828,-0.0843,-0.084,-0.0743,-0.0742,-0.074,-0.0755,0,0,0,0,0,0,-0.1081,-0.1064,-0.1106,-0.0994,-0.0971,-0.0889,-0.0915,-0.0912,-0.0878,-0.0884,-0.0881,-0.0878,-0.0873,-0.0857,-0.085,-0.0824,-0.0838,-0.0744,-0.0743,-0.0741,-0.0756,-0.0755,-0.0753,0,0,0,0,0,-0.109,-0.1085,-0.1111,-0.1092,-0.1018,-0.0884,-0.0875,-0.0849,-0.0877,-0.0876,-0.0893,-0.0878,-0.084,-0.0855,-0.0846,-0.0819,-0.0745,-0.0743,-0.0741,-0.0757,-0.0755,-0.0753,0,0,0,0,0,0,-0.1125,-0.1085,-0.1112,-0.1085,-0.0999,-0.0884,-0.089,-0.0848,-0.0864,-0.0918,-0.0875,-0.0872,-0.0851,-0.0828,-0.0846,-0.0782,-0.0785,-0.0781,-0.0799,-0.0797,-0.0796,-0.0783,-0.0835,0,0,0,0,0,-0.1166,-0.1173,-0.1099,-0.1048,-0.1066,-0.0995,-0.0955,-0.0932,-0.0886,-0.0899,-0.0858,-0.0849,-0.0831,-0.0814,-0.0798,-0.0759,-0.0732,-0.0731,-0.073,-0.0729,-0.0711,-0.067,-0.0664,-0.0733,-0.0733,-0.0733,0,0,-0.1121,-0.111,-0.1097,-0.106,-0.1046,-0.1009,-0.0986,-0.0938,-0.0882,-0.0887,-0.0853,-0.0849,-0.0823,-0.0798,-0.0782,-0.0776,-0.0695,-0.0726,-0.0726,-0.0708,-0.0667,-0.0661,-0.0655,-0.0731,-0.0731,-0.0732,0,0,-0.1007,-0.1102,-0.1093,-0.1073,-0.1044,-0.1023,-0.1005,-0.0933,-0.0932,-0.087,-0.0878,-0.0862,-0.0792,-0.0778,-0.0762,-0.0734,-0.0699,-0.0716,-0.0687,-0.0648,-0.0642,-0.0637,-0.0597,-0.0588,-0.0704,-0.0704,-0.0704,0,-0.0989,-0.0978,-0.1038,-0.1033,-0.1009,-0.1029,-0.0992,-0.0979,-0.087,-0.0855,-0.0865,-0.0788,-0.0781,-0.0735,-0.0735,-0.073,-0.0699,-0.0702,-0.0647,-0.0641,-0.0635,-0.0596,-0.0586,-0.0705,-0.0705,-0.0705,-0.0705,0,-0.0858,-0.0895,-0.0889,-0.0936,-0.0915,-0.0891,-0.0887,-0.0882,-0.0885,-0.0829,-0.0791,-0.0783,-0.0725,-0.0718,-0.072,-0.0664,-0.0654,-0.0663,-0.0656,-0.0629,-0.0589,-0.0578,-0.0705,-0.0705,-0.0705,-0.0705,0,0,-0.0797,-0.0804,-0.0835,-0.0854,-0.0902,-0.0855,-0.0849,-0.0819,-0.0805,-0.0756,-0.0688,-0.0674,-0.0677,-0.0658,-0.0656,-0.0619,-0.057,-0.0618,-0.0616,-0.0586,-0.0473,-0.0321,-0.0294,-0.0569,-0.0567,-0.0565,-0.0464,0,-0.0728,-0.0677,-0.0708,-0.0682,-0.0703,-0.0761,-0.0726,-0.0709,-0.0709,-0.0661,-0.0675,-0.0632,-0.0652,-0.0642,-0.061,-0.0583,-0.054,-0.0595,-0.0496,-0.0492,-0.0366,-0.0275,-0.0306,-0.0204,-0.0453,-0.0452,-0.045,0,-0.0694,-0.0668,-0.0612,-0.0623,-0.065,-0.0613,-0.0649,-0.0605,-0.0594,-0.0599,-0.0579,-0.0578,-0.0537,-0.0564,-0.0484,-0.0517,-0.0488,-0.0466,-0.0462,-0.03,-0.0317,-0.0268,-0.0175,-0.0432,-0.0433,-0.0435,-0.0436,0,-0.0672,-0.0661,-0.0611,-0.0612,-0.0591,-0.0584,-0.0581,-0.0579,-0.0568,-0.0556,-0.054,-0.051,-0.0472,-0.0446,-0.0401,-0.0442,-0.0297,-0.0356,-0.0188,-0.0179,-0.017,-0.016,-0.0283,-0.0283,-0.0283,-0.0283,-0.0283,0,-0.0638,-0.0634,-0.06,-0.0568,-0.0543,-0.0551,-0.0525,-0.0528,-0.052,-0.0488,-0.05,-0.0445,-0.0435,-0.0359,-0.0357,-0.0202,-0.026,-0.014,-0.012,-0.0173,-0.0165,-0.0342,-0.035,-0.0279,-0.028,-0.0281,-0.0282,0,-0.0628,-0.0591,-0.0561,-0.0528,-0.0521,-0.0508,-0.0492,-0.0474,-0.0476,-0.0431,-0.0426,-0.0369,-0.0245,-0.0211,-0.0131,-0.0096,-0.0014,0.0046,-0.0002,0.0016,0.0056,0.0045,0.0243,0.0249,0.0255,0.026,0.0264,0,-0.0589,-0.0578,-0.054,-0.0504,-0.0485,-0.0465,-0.0447,-0.0457,-0.0449,-0.0369,-0.0344,-0.0198,-0.0097,0.0105,0.021,0.0305,0.0194,0.0324,0.0258,0.0122,0.012,0.01,0.0083,0.0234,0.0237,0.024,0.0242,0,-0.0555,-0.0571,-0.0512,-0.0455,-0.0425,-0.0406,-0.0387,-0.0376,-0.0373,-0.0321,-0.0207,-0.0106,0.0144,0.0302,0.0474,0.049,0.0305,0.0395,0.0268,0.0139,0.0132,0.0124,0.0103,0.0267,0.0265,0.0263,0.0262,0.0261,-0.0548,-0.0513,-0.045,-0.0405,-0.0369,-0.0345,-0.0304,-0.0291,-0.0246,-0.0145,-0.0089,0.009,0.0205,0.0526,0.0536,0.0582,0.0638,0.0546,0.0528,0.0509,0.0524,0.0532,0.0743,0.0743,0.0743,0.0744,0.0744,0,-0.0473,-0.0438,-0.0399,-0.0322,-0.028,-0.0294,-0.0257,-0.0209,-0.0124,-0.0015,0.0101,0.0209,0.0373,0.0464,0.0627,0.0691,0.0543,0.0594,0.038,0.0365,0.0348,0.0341,0.0518,0.0516,0.0514,0.0512,0,0,-0.0421,-0.0337,-0.0323,-0.0247,-0.0218,-0.0154,-0.012,-0.0054,0.0036,0.0174,0.0289,0.0399,0.0506,0.0499,0.0535,0.0563,0.0412,0.0506,0.0713,0.0451,0.0429,0.0385,0.037,0,0,0,0,0]},{"header":{"parameterUnit":"m.s-1","parameterCategory":2,"la1":30.2991,"la2":30.254,"lo1":-89.0895,"lo2":-89.0444,"dy":0.0017,"dx":0.0017,"nx":28,"ny":28,"refTime":"2024-07-02T21:00:00:Z","depth":"2","parameterNumber":3,"parameterNumberName":"V-component_of_CURRENTS"},"data":[0,0,0,0,0,0,0,0,0,0,0,0,0,0,0,0,0,0,0,0,0,0,0,0,0,0,0,0,0,0,0,0,0,0,0,0,0,0,0,0,0,0,0,0,0,0,0,0,0,0,0,0,0,0,0,0,0,0,-0.0429,-0.043,0,-0.0365,-0.0361,-0.0358,-0.0155,-0.0154,-0.0152,-0.015,0.023,0.0239,0.0247,0,0,0,0,0,0,0,0,0,0,0,0,0,-0.0514,-0.051,-0.0429,-0.0431,-0.0433,-0.0365,-0.0361,-0.0357,-0.0156,-0.0154,-0.0152,-0.015,0.0228,0.0238,0.0248,0,0,0,0,0,0,0,0,0,0,0,0,0,-0.0437,-0.0509,-0.0428,-0.0346,-0.034,-0.0366,-0.0361,-0.0356,-0.0156,-0.0154,-0.0151,-0.0149,0.0224,0.0237,0.0249,0.0276,0,0,0.0288,0.0294,0,0,0,0,0,0,0,0,-0.0442,-0.043,-0.0356,-0.0352,-0.0346,-0.0292,-0.0254,-0.014,-0.0157,-0.0194,-0.015,-0.0147,0.0063,0.0089,0.0134,0.0294,0.031,0.0289,0.0297,0.0303,0.0306,0,0,0,0,0,0,0,-0.0447,-0.0433,-0.0372,-0.0359,-0.0353,-0.0362,-0.0343,-0.0231,-0.0051,-0.0191,-0.0183,-0.0225,0.0073,0.0121,0.0145,0.0315,0.0289,0.03,0.0308,0.0313,0.0616,0.0617,0,0,0,0,0,0,-0.0511,-0.0437,-0.0375,-0.0374,-0.0422,-0.0364,-0.0342,-0.0287,-0.0059,-0.0034,-0.0228,-0.0217,0.0098,0.013,0.0159,0.0291,0.0302,0.0314,0.0322,0.0616,0.0617,0.0617,0,0,0,0,0,0,-0.0511,-0.0501,-0.0378,-0.0435,-0.0423,-0.0367,-0.0307,-0.0288,-0.0219,-0.0097,-0.0057,-0.018,0.0102,0.0141,0.0287,0.0305,0.032,0.0332,0.0616,0.0616,0.0617,0.05,0,0,0,0,0,0,-0.0511,-0.0499,-0.0482,-0.0435,-0.0423,-0.0376,-0.0312,-0.029,-0.0266,-0.0248,-0.0044,-0.0007,0.0107,0.0266,0.0299,0.0322,0.0342,0.0615,0.0616,0.0617,0.0504,0.0497,0.0491,0,0,0,0,0,-0.0513,-0.049,-0.0478,-0.0475,-0.0397,-0.0379,-0.0368,-0.0305,-0.0267,-0.0229,-0.0093,-0.0012,0.0294,0.0277,0.0316,0.0343,0.0615,0.0616,0.0617,0.0506,0.0498,0.0491,0,0,0,0,0,0,-0.0534,-0.047,-0.0455,-0.0417,-0.0407,-0.0356,-0.0342,-0.0311,-0.0178,-0.0133,0.0003,0.005,0.0183,0.0271,0.0248,0.043,0.0464,0.0472,0.0367,0.0361,0.0354,0.0339,0.0352,0,0,0,0,0,-0.0543,-0.0489,-0.0464,-0.0447,-0.043,-0.0387,-0.0379,-0.0326,-0.0235,-0.0172,-0.0063,0.0078,0.0209,0.029,0.0415,0.0514,0.0525,0.0553,0.0547,0.0541,0.0553,0.0523,0.0513,0.062,0.062,0.062,0,0,-0.0569,-0.0529,-0.0508,-0.0452,-0.042,-0.0382,-0.036,-0.0325,-0.0273,-0.0151,-0.0027,0.0066,0.023,0.0351,0.0416,0.0433,0.0517,0.0542,0.0536,0.0552,0.0522,0.0511,0.0502,0.0621,0.062,0.062,0,0,-0.0589,-0.053,-0.0486,-0.0457,-0.0428,-0.0388,-0.0384,-0.032,-0.0252,-0.015,-0.0054,0.0031,0.0234,0.0324,0.0408,0.0436,0.0481,0.048,0.0447,0.0416,0.0405,0.0397,0.0383,0.0374,0.0479,0.0478,0.0478,0,-0.0624,-0.0543,-0.0491,-0.0442,-0.0422,-0.0388,-0.0339,-0.0279,-0.0188,-0.0144,-0.0105,0.0104,0.0226,0.0347,0.0368,0.0422,0.0413,0.0459,0.0401,0.0393,0.0386,0.0375,0.0367,0.0473,0.0473,0.0474,0.0475,0,-0.0598,-0.0539,-0.0516,-0.0415,-0.0383,-0.0341,-0.0273,-0.0223,-0.016,-0.012,-0.0011,0.0104,0.0224,0.0258,0.0349,0.0362,0.0374,0.0385,0.0405,0.0367,0.036,0.0352,0.0465,0.0467,0.0469,0.047,0,0,-0.0615,-0.0513,-0.0493,-0.0445,-0.0348,-0.0312,-0.0228,-0.0152,-0.011,-0.0041,-0.0001,0.0168,0.017,0.0261,0.032,0.0298,0.0238,0.0321,0.0322,0.0283,0.0169,0.0139,0.0129,0.0219,0.0218,0.0217,0.0177,0,-0.0598,-0.0511,-0.045,-0.0366,-0.0307,-0.0237,-0.0172,-0.0101,-0.0043,-0.0007,0.0063,0.0139,0.019,0.0229,0.0211,0.0236,0.0218,0.0249,0.0238,0.0238,0.0193,0.0119,0.0217,0.0185,0.017,0.0169,0.0169,0,-0.0554,-0.0498,-0.0412,-0.0312,-0.0277,-0.0222,-0.0112,-0.0054,0.0002,0.0044,0.0079,0.0113,0.0133,0.0156,0.0145,0.0157,0.0171,0.0166,0.0164,0.0177,0.0194,0.0229,0.0174,0.0158,0.0159,0.0159,0.016,0,-0.0558,-0.0453,-0.0382,-0.0345,-0.024,-0.0176,-0.0111,-0.0035,0.0008,0.0051,0.0056,0.0077,0.0087,0.0075,0.0089,0.0112,0.0035,0.0068,0.0054,0.0053,0.016,0.017,0.005,0.005,0.005,0.005,0.005,0,-0.0526,-0.047,-0.0376,-0.0335,-0.0244,-0.0166,-0.0088,-0.0025,0.0016,0.002,0.0068,0.0054,0.0059,0.0025,0.0043,0.0008,0.0001,0.0035,0.0028,0.0123,0.0129,0.0139,0.015,0.0049,0.0049,0.0049,0.005,0,-0.0519,-0.0474,-0.0392,-0.0281,-0.0242,-0.0166,-0.0068,-0.0055,0.0009,0.0004,0.0011,0.0019,-0.002,-0.0025,-0.0056,-0.0049,-0.0075,-0.0072,0.0043,0.0049,-0.0016,-0.001,-0.0095,-0.0097,-0.0098,-0.01,-0.0101,0,-0.051,-0.0467,-0.0353,-0.0326,-0.0266,-0.0169,-0.0143,-0.0057,-0.0072,-0.0031,-0.0074,-0.0076,-0.0124,-0.0177,-0.0163,-0.017,-0.0119,-0.0055,0.0011,-0.0039,-0.0037,-0.0028,-0.0021,0.0117,0.0117,0.0118,0.0119,0,-0.0493,-0.0452,-0.0399,-0.0339,-0.0296,-0.0257,-0.0214,-0.0226,-0.0182,-0.0191,-0.024,-0.0261,-0.0259,-0.024,-0.0214,-0.0174,-0.0055,-0.0044,-0.0141,0.0122,0.0153,0.0157,0.016,0.0125,0.0124,0.0124,0.0124,0.0123,-0.0498,-0.0472,-0.0426,-0.0368,-0.0338,-0.0367,-0.0354,-0.0373,-0.04,-0.0385,-0.0401,-0.0357,-0.0302,-0.0245,-0.0201,-0.0075,-0.0102,0.0014,0.0016,0.0016,0.0032,0.0056,0.0015,0.0014,0.0012,0.0012,0.0011,0,-0.0543,-0.0518,-0.0473,-0.0444,-0.0442,-0.0396,-0.0435,-0.044,-0.05,-0.0452,-0.0457,-0.036,-0.0289,-0.0164,-0.0006,0.0009,0.0066,0.0103,0.0196,0.019,0.0185,0.0212,0.0242,0.0242,0.0242,0.0242,0,0,-0.058,-0.0584,-0.0566,-0.0564,-0.0528,-0.054,-0.0562,-0.0564,-0.0523,-0.0484,-0.038,-0.0343,-0.0241,-0.0093,-0.0002,0.0141,0.0162,0.0186,0.001,0.0108,0.0101,0.0154,0.0191,0,0,0,0,0]}],[{"header":{"parameterUnit":"m.s-1","parameterCategory":2,"la1":30.2991,"la2":30.254,"lo1":-89.0895,"lo2":-89.0444,"dy":0.0017,"dx":0.0017,"nx":28,"ny":28,"refTime":"2024-07-02T21:00:00:Z","depth":"4","parameterNumber":2,"parameterNumberName":"U-component_of_CURRENTS"},"data":[0,0,0,0,0,0,0,0,0,0,0,0,0,0,0,0,0,0,0,0,0,0,0,0,0,0,0,0,0,0,0,0,0,0,0,0,0,0,0,0,0,0,0,0,0,0,0,0,0,0,0,0,0,0,0,0,0,0,-0.0314,-0.0314,0,-0.0307,-0.0308,-0.0308,-0.0304,-0.0304,-0.0304,-0.0303,-0.0326,-0.0327,-0.0328,0,0,0,0,0,0,0,0,0,0,0,0,0,-0.0366,-0.0365,-0.0314,-0.0314,-0.0313,-0.0307,-0.0308,-0.0308,-0.0304,-0.0304,-0.0303,-0.0303,-0.0326,-0.0327,-0.0328,0,0,0,0,0,0,0,0,0,0,0,0,0,-0.0353,-0.0364,-0.0314,-0.0309,-0.0308,-0.0307,-0.0308,-0.0308,-0.0304,-0.0304,-0.0303,-0.0303,-0.0325,-0.0327,-0.0328,-0.0345,0,0,-0.0332,-0.0332,0,0,0,0,0,0,0,0,-0.0353,-0.0351,-0.031,-0.0309,-0.0308,-0.0303,-0.0334,-0.0321,-0.0304,-0.0309,-0.0303,-0.0303,-0.0319,-0.0321,-0.0325,-0.0347,-0.0347,-0.0332,-0.0333,-0.0333,-0.0334,0,0,0,0,0,0,0,-0.0354,-0.0352,-0.0315,-0.0309,-0.0308,-0.032,-0.0318,-0.0332,-0.032,-0.0309,-0.0308,-0.0302,-0.0319,-0.0324,-0.0326,-0.0348,-0.0332,-0.0333,-0.0334,-0.0335,-0.0379,-0.038,0,0,0,0,0,0,-0.0346,-0.0352,-0.0315,-0.0314,-0.0326,-0.0319,-0.0317,-0.0308,-0.0319,-0.0319,-0.0302,-0.0301,-0.0322,-0.0324,-0.0326,-0.034,-0.0333,-0.0335,-0.0335,-0.0379,-0.0379,-0.038,0,0,0,0,0,0,-0.0348,-0.0343,-0.0315,-0.0331,-0.0328,-0.0318,-0.0309,-0.0308,-0.0303,-0.0313,-0.0314,-0.0296,-0.0321,-0.0325,-0.0342,-0.0341,-0.0335,-0.0336,-0.0379,-0.0379,-0.038,-0.0371,0,0,0,0,0,0,-0.0349,-0.0344,-0.0352,-0.033,-0.0326,-0.0311,-0.0309,-0.0308,-0.0299,-0.0298,-0.0309,-0.0311,-0.0321,-0.034,-0.0343,-0.0342,-0.0338,-0.0378,-0.0379,-0.0379,-0.0371,-0.0372,-0.0372,0,0,0,0,0,-0.0351,-0.0342,-0.0353,-0.0349,-0.0332,-0.031,-0.031,-0.0304,-0.0299,-0.0298,-0.0311,-0.031,-0.0346,-0.0341,-0.0345,-0.0345,-0.0378,-0.0379,-0.0379,-0.0371,-0.0372,-0.0372,0,0,0,0,0,0,-0.0361,-0.034,-0.0351,-0.0336,-0.0329,-0.0308,-0.0312,-0.03,-0.0309,-0.0309,-0.0319,-0.0323,-0.0337,-0.0345,-0.0339,-0.0361,-0.036,-0.0362,-0.0352,-0.0353,-0.0354,-0.0336,-0.0339,0,0,0,0,0,-0.0371,-0.0362,-0.0347,-0.0338,-0.0339,-0.0329,-0.0324,-0.031,-0.0306,-0.0308,-0.0319,-0.0332,-0.0345,-0.0351,-0.0367,-0.038,-0.0382,-0.0382,-0.0382,-0.0383,-0.0372,-0.0399,-0.0401,-0.0383,-0.0383,-0.0383,0,0,-0.0376,-0.0359,-0.0359,-0.0341,-0.0342,-0.0331,-0.0325,-0.0306,-0.0292,-0.0311,-0.0315,-0.0335,-0.035,-0.0366,-0.0372,-0.0371,-0.0385,-0.0384,-0.0384,-0.0373,-0.04,-0.0402,-0.0403,-0.0383,-0.0383,-0.0383,0,0,-0.0359,-0.0367,-0.0356,-0.0348,-0.0334,-0.033,-0.032,-0.0305,-0.0301,-0.03,-0.0316,-0.0339,-0.035,-0.0372,-0.038,-0.0392,-0.0388,-0.0392,-0.0379,-0.0406,-0.0407,-0.0409,-0.0394,-0.0395,-0.0391,-0.0391,-0.0391,0,-0.0364,-0.035,-0.035,-0.0331,-0.0326,-0.0325,-0.0309,-0.0305,-0.0294,-0.0296,-0.0297,-0.0337,-0.0352,-0.0379,-0.0379,-0.0392,-0.0391,-0.0375,-0.0406,-0.0407,-0.0409,-0.0394,-0.0395,-0.0391,-0.0391,-0.0391,-0.0391,0,-0.0337,-0.0333,-0.0324,-0.031,-0.0303,-0.0288,-0.028,-0.0278,-0.0276,-0.0273,-0.0295,-0.033,-0.0352,-0.0364,-0.0368,-0.0391,-0.0379,-0.0404,-0.0402,-0.041,-0.0394,-0.0394,-0.039,-0.039,-0.039,-0.0391,0,0,-0.0327,-0.031,-0.0309,-0.0304,-0.0291,-0.0273,-0.0264,-0.0259,-0.0252,-0.0266,-0.0271,-0.0305,-0.0329,-0.034,-0.0369,-0.0388,-0.0393,-0.0391,-0.0392,-0.037,-0.0417,-0.0336,-0.0328,-0.0424,-0.0424,-0.0425,-0.0395,0,-0.0313,-0.0277,-0.0272,-0.0252,-0.0245,-0.0244,-0.0235,-0.0225,-0.0231,-0.024,-0.0279,-0.0299,-0.0318,-0.0336,-0.036,-0.0395,-0.0396,-0.0396,-0.0417,-0.0417,-0.034,-0.0327,-0.0426,-0.0395,-0.0395,-0.0395,-0.0395,0,-0.0294,-0.0273,-0.0247,-0.0229,-0.0226,-0.021,-0.0204,-0.0192,-0.0206,-0.021,-0.0244,-0.0274,-0.0315,-0.033,-0.0379,-0.0377,-0.0382,-0.0402,-0.0402,-0.0327,-0.0337,-0.0391,-0.0396,-0.0396,-0.0396,-0.0396,-0.0396,0,-0.0285,-0.0258,-0.0238,-0.023,-0.0207,-0.0194,-0.0186,-0.0185,-0.0177,-0.02,-0.0206,-0.0261,-0.0292,-0.0326,-0.0355,-0.0368,-0.0392,-0.0426,-0.035,-0.0344,-0.0432,-0.0431,-0.0438,-0.0438,-0.0438,-0.0438,-0.0438,0,-0.0265,-0.025,-0.0231,-0.0215,-0.019,-0.0179,-0.0158,-0.0154,-0.0159,-0.0155,-0.0197,-0.0215,-0.0293,-0.0317,-0.0341,-0.0332,-0.0382,-0.0329,-0.0332,-0.0426,-0.0425,-0.043,-0.043,-0.0437,-0.0437,-0.0437,-0.0437,0,-0.0242,-0.0238,-0.0212,-0.0189,-0.0181,-0.0157,-0.0132,-0.0119,-0.0127,-0.0127,-0.0134,-0.0183,-0.0204,-0.0248,-0.0299,-0.0303,-0.0313,-0.0291,-0.0349,-0.0359,-0.0247,-0.0247,-0.021,-0.0206,-0.0204,-0.0202,-0.02,0,-0.0214,-0.0202,-0.0185,-0.0168,-0.0152,-0.0124,-0.0105,-0.0101,-0.0088,-0.0104,-0.0104,-0.0126,-0.0151,-0.0155,-0.0206,-0.0215,-0.0218,-0.0215,-0.0258,-0.0217,-0.0225,-0.0229,-0.0232,-0.0196,-0.0195,-0.0194,-0.0193,0,-0.0162,-0.017,-0.0152,-0.0132,-0.0109,-0.008,-0.0054,-0.0042,-0.0041,-0.0057,-0.0059,-0.0071,-0.0078,-0.0115,-0.0103,-0.0125,-0.0224,-0.0188,-0.0195,-0.0235,-0.02,-0.0211,-0.0217,-0.0184,-0.0186,-0.0186,-0.0187,0,-0.0124,-0.0115,-0.0113,-0.0092,-0.0067,-0.0039,-0.0028,-0.0007,0.0001,-0.0013,-0.0016,-0.0041,-0.0072,-0.0064,-0.0068,-0.006,-0.0071,-0.0091,-0.0103,-0.0113,-0.0096,-0.0038,0.0041,0,0,0,0,0,-0.0081,-0.0088,-0.007,-0.0053,-0.0027,-0.0019,0.0004,0.0009,0.0004,0.0019,0.0008,0.0009,0.0009,-0.0014,0.0014,-0.0021,-0.0071,0.0011,-0.01,-0.0133,-0.0144,-0.0133,0,0,0,0,0,0,-0.006,-0.0053,-0.0069,-0.0028,-0.0007,0.002,0.0033,0.0031,0.0042,0.0031,0.003,0.0021,0.0018,-0.0002,0.0014,0.0014,-0.0051,0.0004,0.0005,-0.0127,-0.0137,-0.0146,-0.0138,0,0,0,0,0]},{"header":{"parameterUnit":"m.s-1","parameterCategory":2,"la1":30.2991,"la2":30.254,"lo1":-89.0895,"lo2":-89.0444,"dy":0.0017,"dx":0.0017,"nx":28,"ny":28,"refTime":"2024-07-02T21:00:00:Z","depth":"4","parameterNumber":3,"parameterNumberName":"V-component_of_CURRENTS"},"data":[0,0,0,0,0,0,0,0,0,0,0,0,0,0,0,0,0,0,0,0,0,0,0,0,0,0,0,0,0,0,0,0,0,0,0,0,0,0,0,0,0,0,0,0,0,0,0,0,0,0,0,0,0,0,0,0,0,0,-0.0299,-0.03,0,-0.0323,-0.0323,-0.0323,-0.0317,-0.0317,-0.0316,-0.0316,-0.0331,-0.0331,-0.0332,0,0,0,0,0,0,0,0,0,0,0,0,0,-0.0299,-0.0298,-0.0299,-0.03,-0.03,-0.0323,-0.0323,-0.0323,-0.0317,-0.0317,-0.0316,-0.0316,-0.033,-0.0331,-0.0332,0,0,0,0,0,0,0,0,0,0,0,0,0,-0.0306,-0.0298,-0.0299,-0.0302,-0.0302,-0.0323,-0.0323,-0.0323,-0.0317,-0.0317,-0.0316,-0.0316,-0.033,-0.0331,-0.0332,-0.0346,0,0,-0.0335,-0.0335,0,0,0,0,0,0,0,0,-0.0305,-0.0306,-0.0301,-0.0301,-0.0302,-0.0318,-0.0328,-0.0331,-0.0317,-0.0309,-0.0316,-0.0316,-0.0327,-0.0329,-0.0331,-0.0347,-0.0347,-0.0335,-0.0336,-0.0336,-0.0336,0,0,0,0,0,0,0,-0.0305,-0.0305,-0.0306,-0.0301,-0.0302,-0.0319,-0.0318,-0.0329,-0.0318,-0.031,-0.031,-0.0316,-0.0327,-0.033,-0.0331,-0.0348,-0.0335,-0.0336,-0.0336,-0.0337,-0.0387,-0.0388,0,0,0,0,0,0,-0.0304,-0.0304,-0.0306,-0.0307,-0.0305,-0.0319,-0.0319,-0.0312,-0.0318,-0.032,-0.0316,-0.0316,-0.0329,-0.033,-0.0332,-0.0353,-0.0336,-0.0337,-0.0337,-0.0386,-0.0387,-0.0388,0,0,0,0,0,0,-0.0304,-0.0303,-0.0305,-0.0309,-0.031,-0.0319,-0.0312,-0.0313,-0.0316,-0.0324,-0.0325,-0.0319,-0.0328,-0.033,-0.0344,-0.0354,-0.0337,-0.0338,-0.0385,-0.0386,-0.0388,-0.0393,0,0,0,0,0,0,-0.0303,-0.0303,-0.0293,-0.0308,-0.031,-0.032,-0.0312,-0.0313,-0.0321,-0.0321,-0.0327,-0.0328,-0.0328,-0.0342,-0.0344,-0.0355,-0.0339,-0.0384,-0.0386,-0.0387,-0.0392,-0.0395,-0.0397,0,0,0,0,0,-0.0303,-0.0296,-0.0292,-0.0292,-0.0297,-0.0321,-0.0324,-0.0327,-0.0322,-0.0327,-0.033,-0.0327,-0.0353,-0.0343,-0.0346,-0.0357,-0.0384,-0.0385,-0.0387,-0.0391,-0.0394,-0.0397,0,0,0,0,0,0,-0.0302,-0.0296,-0.0291,-0.0284,-0.0302,-0.0321,-0.0323,-0.033,-0.0336,-0.0335,-0.0335,-0.0337,-0.0355,-0.0357,-0.0346,-0.0377,-0.0369,-0.0371,-0.0371,-0.0374,-0.0376,-0.038,-0.034,0,0,0,0,0,-0.0294,-0.0286,-0.0292,-0.0296,-0.0294,-0.0309,-0.0316,-0.0327,-0.0339,-0.0341,-0.035,-0.0357,-0.0365,-0.0369,-0.0381,-0.0395,-0.0357,-0.0405,-0.0408,-0.0409,-0.0416,-0.032,-0.0312,-0.0394,-0.0394,-0.0394,0,0,-0.0302,-0.0297,-0.0295,-0.0296,-0.0303,-0.0315,-0.0311,-0.0331,-0.0353,-0.0342,-0.0367,-0.0368,-0.0372,-0.0389,-0.0397,-0.039,-0.0375,-0.0411,-0.0413,-0.0418,-0.032,-0.0312,-0.0304,-0.0395,-0.0394,-0.0394,0,0,-0.0323,-0.03,-0.0299,-0.0303,-0.0316,-0.0328,-0.0334,-0.0354,-0.0364,-0.039,-0.0386,-0.0389,-0.0412,-0.041,-0.0411,-0.0433,-0.0391,-0.0443,-0.0453,-0.0359,-0.0351,-0.0343,-0.0312,-0.0301,-0.044,-0.044,-0.044,0,-0.0331,-0.0329,-0.0311,-0.0312,-0.0324,-0.0332,-0.0351,-0.0363,-0.0395,-0.041,-0.0402,-0.0421,-0.0421,-0.0427,-0.0435,-0.0437,-0.039,-0.0439,-0.0358,-0.0349,-0.0341,-0.031,-0.0298,-0.0441,-0.0441,-0.044,-0.044,0,-0.0349,-0.0348,-0.0351,-0.035,-0.036,-0.0383,-0.0393,-0.0414,-0.0428,-0.0446,-0.0462,-0.045,-0.0456,-0.0458,-0.0454,-0.0413,-0.0404,-0.0368,-0.0342,-0.0332,-0.0302,-0.0289,-0.0441,-0.0441,-0.0441,-0.0441,0,0,-0.0365,-0.0364,-0.0364,-0.0376,-0.0383,-0.0402,-0.0427,-0.0461,-0.0484,-0.0492,-0.0507,-0.0509,-0.0494,-0.0494,-0.0477,-0.0407,-0.0317,-0.0364,-0.0359,-0.0321,-0.0139,-0.0185,-0.0176,-0.0243,-0.024,-0.0238,-0.0152,0,-0.039,-0.0408,-0.0401,-0.0438,-0.0448,-0.0455,-0.0482,-0.051,-0.0529,-0.0544,-0.052,-0.0528,-0.0508,-0.0501,-0.0425,-0.0346,-0.0279,-0.0347,-0.0168,-0.0165,-0.0193,-0.016,-0.0229,-0.0142,-0.0139,-0.0137,-0.0135,0,-0.0398,-0.0416,-0.0449,-0.0483,-0.0487,-0.0513,-0.0554,-0.0579,-0.0593,-0.0599,-0.0584,-0.0566,-0.0507,-0.0465,-0.0305,-0.0341,-0.0246,-0.0175,-0.0168,-0.0198,-0.0185,-0.0149,-0.0111,-0.0113,-0.0115,-0.0116,-0.0118,0,-0.0416,-0.0446,-0.0482,-0.0488,-0.0525,-0.0551,-0.0575,-0.0603,-0.0628,-0.0625,-0.0628,-0.0561,-0.0519,-0.0374,-0.0265,-0.0255,-0.0078,-0.0039,-0.0001,-0.0005,0.0014,0.0005,0.01,0.0099,0.0099,0.0099,0.0099,0,-0.0431,-0.0461,-0.0495,-0.0513,-0.0568,-0.0576,-0.0628,-0.0646,-0.0659,-0.0682,-0.0648,-0.0635,-0.0479,-0.0382,-0.0257,-0.0112,-0.0063,-0.0004,0.0029,0.0001,-0.001,0.0022,0.0012,0.0102,0.0102,0.0101,0.01,0,-0.0444,-0.046,-0.0507,-0.0556,-0.0575,-0.0611,-0.0659,-0.0692,-0.0699,-0.0714,-0.0707,-0.0661,-0.0536,-0.0413,-0.02,-0.0117,0.0032,0.0072,-0.0023,0.0003,0.0039,0.0028,0.0146,0.0146,0.0145,0.0145,0.0145,0,-0.0457,-0.0479,-0.0539,-0.0571,-0.0598,-0.0649,-0.0685,-0.0709,-0.0733,-0.0733,-0.0733,-0.0652,-0.0602,-0.036,-0.0221,-0.0011,0.0022,0.0084,0.011,0.0031,0.0052,0.0041,0.003,0.0144,0.0144,0.0144,0.0143,0,-0.0499,-0.0515,-0.056,-0.0601,-0.0647,-0.0691,-0.0735,-0.0747,-0.0764,-0.0778,-0.0734,-0.0643,-0.0525,-0.0361,-0.0224,-0.0065,0.0041,0.008,0.0083,0.0109,0.003,0.0048,0.0038,0.0142,0.0142,0.0142,0.0142,0,-0.0545,-0.057,-0.0606,-0.0636,-0.0686,-0.0705,-0.073,-0.0741,-0.0753,-0.0745,-0.0731,-0.0625,-0.0568,-0.039,-0.0255,-0.0123,-0.0065,-0.0003,0.0006,0.0009,-0.0064,-0.0186,-0.0106,0,0,0,0,0,-0.059,-0.0597,-0.0633,-0.0658,-0.0695,-0.0707,-0.0752,-0.0768,-0.0779,-0.0745,-0.0733,-0.0628,-0.0451,-0.0391,-0.0256,-0.0249,-0.0043,-0.0089,0.0034,0.0133,0.0134,0.0068,0,0,0,0,0,0,-0.0622,-0.0658,-0.0635,-0.0652,-0.0663,-0.0695,-0.0715,-0.0728,-0.0703,-0.0708,-0.0614,-0.0593,-0.0421,-0.0516,-0.0251,-0.0219,-0.0122,-0.0018,-0.0015,0.0131,0.0133,0.0135,0.0067,0,0,0,0,0]}]]